Weather History for KD07 - March, 2014

Change the Weather History Date:

Sunday, March 16, 2014

  Actual Average Record
Temperature  
Mean Temperature 31 °F 32 °F  
Max Temperature 50 °F 43 °F - ()
Min Temperature 11 °F 22 °F - ()
Degree Days  
Heating Degree Days 34 32  
Month to date heating degree days 626 562  
Since 1 July heating degree days 6712 6250  
Cooling Degree Days 0 0  
Month to date cooling degree days 0 0  
Year to date cooling degree days 0 0  
Moisture  
Dew Point 26 °F    
Average Humidity 74    
Maximum Humidity 92    
Minimum Humidity 56    
Precipitation  
Precipitation 0.00 in 0.03 in - ()
Month to date precipitation 0.85 0.40  
Year to date precipitation 1.75 1.02  
Sea Level Pressure  
Sea Level Pressure 30.13 in    
Wind  
Wind Speed 16 mph (South)    
Max Wind Speed 26 mph    
Max Gust Speed 31 mph    
T = Trace of Precipitation, MM = Missing Value Source: NWS Daily Summary

Daily Weather History Graph

Daily Weather History Graph

Search for Another Location

Airport or City:

Trip Planner

Search our weather history database for the weather conditions in past years. The results will help you decide how hot, cold, wet, or windy it might be!

Date:

Astronomy

Mar. 16, 2014 Rise Set
Actual Time 6:58 AM MDT 6:55 PM MDT
Civil Twilight 6:29 AM MDT 7:24 PM MDT
Nautical Twilight 5:55 AM MDT 7:59 PM MDT
Astronomical Twilight 5:20 AM MDT 8:34 PM MDT
Moon 7:17 PM MDT (3/16) 6:42 AM MDT (3/16)
Length of Visible Light 12h 55m
Length of Day
11h 56m
Full, 100% of the Moon is Illuminated
Mar 16
Full
Mar 23
Last Quarter
Mar 30
New
Apr 7
First Quarter
Apr 15
Full

Hourly Weather History & Observations

Time (MDT) Temp. Windchill Dew Point Humidity Pressure Visibility Wind Dir Wind Speed Gust Speed Precip Events Conditions
12:56 AM 12.9 °F 1.6 °F 10.9 °F 92% 30.50 in - South 8.1 mph - N/A   Unknown
1:56 AM 10.9 °F -1.8 °F 9.0 °F 92% 30.48 in - South 9.2 mph - N/A   Unknown
2:56 AM 15.1 °F 2.5 °F 12.9 °F 91% 30.46 in - South 10.4 mph - N/A   Unknown
3:56 AM 19.0 °F 5.6 °F 17.1 °F 92% 30.43 in - South 13.8 mph - N/A   Unknown
4:56 AM 19.0 °F 6.1 °F 17.1 °F 92% 30.41 in - SSE 12.7 mph - N/A   Unknown
5:56 AM 19.9 °F 5.7 °F 18.0 °F 92% 30.40 in - South 16.1 mph - N/A   Unknown
6:56 AM 19.9 °F 4.8 °F 18.0 °F 92% 30.37 in - South 18.4 mph - N/A   Unknown
7:56 AM 21.9 °F 7.3 °F 19.0 °F 89% 30.34 in - South 18.4 mph - N/A   Unknown
8:56 AM 25.0 °F 10.9 °F 21.0 °F 85% 30.32 in - South 19.6 mph - N/A   Unknown
9:56 AM 27.0 °F 12.5 °F 23.0 °F 85% 30.25 in - South 23.0 mph - N/A   Unknown
10:56 AM 30.0 °F 16.3 °F 25.0 °F 82% 30.21 in - South 24.2 mph - N/A   Unknown
11:56 AM 32.0 °F 18.6 °F 27.0 °F 82% 30.18 in - South 25.3 mph - N/A   Unknown
12:56 PM 32.0 °F 20.1 °F 28.0 °F 85% 30.14 in - South 19.6 mph - N/A   Unknown
1:56 PM 37.9 °F 27.1 °F 32.0 °F 79% 30.07 in - South 23.0 mph - N/A   Unknown
2:56 PM 43.0 °F 34.5 °F 35.1 °F 74% 30.01 in - South 19.6 mph - N/A   Unknown
3:56 PM 46.0 °F 39.6 °F 36.0 °F 68% 29.97 in - South 15.0 mph - N/A   Unknown
4:56 PM 50.0 °F - 37.0 °F 61% 29.91 in - South 17.3 mph - N/A   Unknown
5:56 PM 50.0 °F - 35.1 °F 57% 29.88 in - South 15.0 mph - N/A   Unknown
6:56 PM 44.1 °F 36.8 °F 35.1 °F 71% 29.86 in - South 16.1 mph - N/A   Unknown
7:56 PM 43.0 °F 35.7 °F 34.0 °F 71% 29.83 in - South 15.0 mph - N/A   Unknown
8:56 PM 43.0 °F 36.4 °F 33.1 °F 68% 29.81 in - SSW 12.7 mph - N/A   Unknown
9:56 PM 44.1 °F 38.6 °F 33.1 °F 65% 29.78 in - SW 10.4 mph - N/A   Unknown
10:56 PM 43.0 °F 37.2 °F 33.1 °F 68% 29.74 in - SW 10.4 mph - N/A   Unknown
11:56 PM 43.0 °F 36.4 °F 30.9 °F 62% 29.72 in - WSW 12.7 mph - N/A   Unknown